Date,TemperatureHighF,TemperatureAvgF,TemperatureLowF,DewpointHighF,DewpointAvgF,DewpointLowF,HumidityHigh,HumidityAvg,HumidityLow,PressureMaxIn,PressureMinIn,WindSpeedMaxMPH,WindSpeedAvgMPH,GustSpeedMaxMPH,PrecipitationSumIn
2013-1-1,46,36,27,25,22,18,77,60,34,30.45,30.41,2,1,5,0.00
2013-1-2,53,36,22,26,22,17,81,61,33,30.44,30.29,4,1,11,0.00
2013-1-3,47,35,27,33,26,21,87,70,43,30.48,30.30,8,3,15,0.00
2013-1-4,49,35,27,29,26,23,87,72,46,30.57,30.46,4,1,9,0.00
2013-1-5,59,37,23,29,20,6,85,57,14,30.64,30.52,3,1,5,0.00
2013-1-6,56,45,30,24,19,11,56,36,24,30.54,30.16,6,2,13,0.00
2013-1-7,57,42,29,25,20,6,68,46,13,30.17,29.99,7,2,9,0.00
2013-1-8,58,43,31,27,23,17,72,47,24,30.33,30.09,5,2,9,0.00
2013-1-9,62,44,30,23,17,11,63,38,14,30.49,30.31,6,2,12,0.00
2013-1-10,63,47,29,22,16,12,55,31,16,30.31,30.02,23,5,28,0.00
2013-1-11,49,38,27,32,13,-5,76,39,12,30.18,30.02,16,6,22,0.00
2013-1-12,36,25,15,11,6,2,68,46,25,30.44,30.17,9,3,17,0.00
2013-1-13,44,27,15,9,4,-3,63,40,16,30.45,30.29,5,2,17,0.00
2013-1-14,38,25,13,6,2,-3,64,40,21,30.52,30.34,10,3,17,0.00
2013-1-15,37,22,9,6,-1,-7,69,41,15,30.74,30.51,4,1,9,0.00
2013-1-16,54,34,18,9,3,-2,45,30,13,30.77,30.59,6,2,11,0.00
2013-1-17,61,43,24,13,10,6,55,28,14,30.62,30.48,6,2,12,0.00
2013-1-18,65,44,28,17,12,8,48,29,12,30.51,30.36,4,2,9,0.00
2013-1-19,70,50,34,28,20,9,53,34,14,30.50,30.34,3,1,6,0.00
2013-1-20,71,52,38,32,28,24,69,43,22,30.41,30.21,3,1,8,0.00
2013-1-21,70,53,38,33,30,27,74,46,24,30.31,30.21,4,2,8,0.00
2013-1-27,52,52,49,40,39,36,69,62,59,30.14,30.13,5,2,9,0.15
2013-1-28,52,45,32,41,36,27,92,70,52,30.15,30.04,12,6,20,0.14
2013-1-29,43,34,27,29,22,16,93,62,36,30.47,30.15,10,6,16,0.03
2013-1-30,49,37,25,22,17,5,78,48,19,30.63,30.47,6,2,9,0.00
2013-1-31,58,42,27,29,22,18,73,50,25,30.53,30.40,3,1,7,0.00
2013-2-1,69,47,30,28,22,15,68,42,14,30.48,30.37,3,1,6,0.00
2013-2-2,70,52,37,26,20,8,48,32,9,30.47,30.34,3,1,7,0.00
2013-2-3,61,51,44,40,28,19,69,44,23,30.36,30.15,12,1,17,0.00
2013-2-4,63,50,37,37,34,29,75,56,35,30.24,30.12,5,1,8,0.00
2013-2-5,68,51,38,40,33,29,82,55,25,30.23,30.10,5,2,8,0.00
2013-2-6,63,49,36,36,32,26,82,55,26,30.24,30.09,9,2,12,0.00
2013-2-7,66,49,35,35,28,21,78,50,19,30.31,30.18,3,1,8,0.00
2013-2-8,62,52,39,25,17,-4,54,28,7,30.19,29.92,17,8,31,0.00
2013-2-9,48,40,31,30,21,15,77,49,31,30.25,29.90,16,7,25,0.00
2013-2-10,33,25,23,21,17,15,76,70,60,30.30,30.25,2,1,4,0.00
2013-6-7,98,90,75,24,17,3,14,7,3,29.82,29.70,8,3,0,0.00
2013-6-8,96,83,65,34,22,13,23,12,5,29.89,29.78,21,4,21,0.00
2013-6-9,96,84,66,36,25,14,28,14,6,29.93,29.82,19,4,19,0.00
2013-6-10,99,84,65,31,24,15,22,12,6,29.97,29.82,8,3,15,0.00
2013-6-11,100,85,65,32,23,10,23,11,4,29.93,29.81,9,3,18,0.00
2013-6-12,100,85,66,33,26,20,21,12,6,29.98,29.82,8,3,15,0.00
2013-6-13,96,84,68,48,39,29,49,22,11,29.94,29.79,9,4,16,0.00
2013-6-14,92,79,69,58,49,43,53,36,22,29.92,29.81,10,3,15,0.00
2013-6-15,94,78,64,54,50,42,57,38,20,30.00,29.89,10,2,15,0.00
2013-6-16,96,81,65,52,42,27,54,29,10,30.03,29.90,9,2,15,0.00
2013-6-17,95,82,64,34,24,12,27,13,5,29.99,29.86,11,3,17,0.00
2013-6-18,96,81,62,28,10,-21,22,9,1,29.94,29.82,8,3,19,0.00
2013-6-19,97,82,62,33,21,1,23,11,4,29.87,29.76,13,4,23,0.00
2013-6-20,96,80,58,35,17,-25,27,12,1,29.90,29.81,12,3,17,0.00
2013-6-21,95,81,61,42,29,1,36,18,3,29.94,29.85,12,3,20,0.00
2013-6-22,94,82,67,36,23,0,28,14,4,29.94,29.81,12,4,21,0.00
2013-6-23,93,80,59,36,30,20,31,17,9,29.91,29.78,12,4,23,0.00
2013-6-24,92,81,67,38,32,25,30,18,12,29.92,29.82,12,4,19,0.00
2013-6-25,94,81,62,40,27,15,40,17,6,30.00,29.91,9,3,20,0.00
2013-6-26,96,82,66,33,26,16,26,14,8,30.07,29.95,7,2,17,0.00
2013-6-27,97,84,66,39,30,21,24,15,9,30.10,29.95,7,3,15,0.00
2013-6-28,103,88,71,33,28,22,20,12,6,30.00,29.85,8,2,18,0.00
2013-6-29,103,87,70,40,33,21,26,16,6,29.95,29.78,6,2,13,0.00
2013-6-30,100,83,66,61,44,35,83,31,12,29.96,29.73,13,4,21,0.37
2013-7-1,96,82,68,60,53,40,74,41,16,30.00,29.86,6,1,12,0.00
2013-7-2,92,79,64,58,53,48,80,45,22,30.10,29.88,15,3,25,0.03
2013-7-3,93,80,66,59,52,46,73,41,22,30.04,29.78,11,2,19,0.02
2013-7-4,95,81,65,60,54,46,81,44,19,29.91,29.76,10,3,19,0.00